Location: Petrozavodsk
(61.7955°N, 34.3748°E)
Time: 14:27:12
(UTC+03:00)

BlueWalker 3 - Pass Details

Date: 01 April 2023
Orbit: 494 x 513 km, 53.2° (Epoch: 08 June)

Event Time Altitude Azimuth Distance (km) Brightness Sun altitude
Rises 20:10:58 0° 215° (SW) 2,620 5.8 -5.7°
Reaches altitude 10° 20:13:50 10° 193° (SSW) 1,731 4.6 -6.0°
Maximum altitude 20:16:12 16° 156° (SSE) 1,409 3.8 -6.2°
Drops below altitude 10° 20:18:35 10° 118° (ESE) 1,726 4.0 -6.5°
Enters shadow 20:19:02 - 113° (ESE) 1,843 4.1 -6.5°
